GW0883 Weather Reports


Display with metric or nautical units.
time (UTC)temp
F
wind
direction
speed
MPH
gust
MPH
rain 1hr
in
rain 24hr
in
rain mn
in
humidity
%
barometer
mb
20260503015016 46 337 0.0 0.0 0.00 0.09 0.09 80 1013.5
20260503014016 46 337 0.0 0.0 0.00 0.09 0.09 79 1013.4
20260503013016 46 337 0.0 0.0 0.00 0.09 0.09 79 1013.3
20260503012018 47 337 0.0 0.0 0.00 0.09 0.09 78 1013.3
20260503011019 46 225 0.0 0.0 0.00 0.09 0.09 78 1013.3
20260503010116 45 225 0.0 0.0 0.00 0.09 0.09 77 1013.2
20260503005117 46 225 0.0 0.0 0.00 0.09 0.09 77 1013.2
20260503004116 46 225 0.0 0.0 0.00 0.09 0.09 77 1013.0
20260503003117 47 225 0.0 0.0 0.00 0.09 0.09 77 1012.8
20260503002215 47 225 0.0 0.0 0.00 0.09 0.09 76 1012.9
20260503001217 47 225 0.0 0.0 0.00 0.09 0.09 76 1012.8
20260503000215 48 225 0.0 0.0 0.00 0.09 0.09 76 1012.7
20260502233216 49 225 0.0 0.0 0.00 0.09 0.09 75 1012.5
20260502232215 49 225 0.0 0.0 0.00 0.09 0.09 74 1012.6
20260502230316 50 225 0.0 0.0 0.00 0.09 0.09 74 1012.6
20260502225315 50 225 1.0 2.0 0.00 0.09 0.09 73 1012.6
20260502224315 50 202 0.0 1.0 0.00 0.09 0.09 72 1012.5
20260502223317 50 225 1.0 3.0 0.00 0.09 0.09 72 1012.5
20260502222316 50 225 0.0 0.0 0.00 0.09 0.09 72 1012.4
20260502221317 50 202 0.0 2.0 0.00 0.09 0.09 72 1012.5
20260502220414 50 202 0.0 0.0 0.00 0.09 0.09 72 1012.3
20260502220315 50 202 0.0 0.0 0.00 0.09 0.09 71 1012.3
20260502215316 49 196 1.0 2.0 0.00 0.09 0.09 70 1012.4
20260502214414 49 180 0.0 0.0 0.00 0.09 0.09 71 1012.5
20260502213415 49 180 0.0 0.0 0.01 0.09 0.09 70 1012.6
20260502212514 49 180 0.0 0.0 0.01 0.09 0.09 71 1012.6
20260502204615 50 244 1.0 2.0 0.01 0.09 0.09 69 1012.7
20260502203616 50 238 2.0 3.0 0.00 0.08 0.08 70 1012.9
20260502202616 51 265 3.0 5.0 0.00 0.08 0.08 70 1012.8
20260502201615 52 235 1.0 2.0 0.00 0.08 0.08 69 1012.6
20260502200615 52 231 2.0 4.0 0.00 0.08 0.08 69 1012.8
20260502195615 53 180 0.0 0.0 0.00 0.08 0.08 70 1012.7
20260502194615 53 267 0.0 1.0 0.00 0.08 0.08 70 1012.6
20260502193616 55 225 0.0 3.0 0.00 0.08 0.08 71 1012.6
20260502192616 56 223 4.0 8.0 0.00 0.08 0.08 70 1012.6
20260502191616 56 270 1.0 3.0 0.00 0.08 0.08 72 1012.7
20260502185717 56 245 3.0 7.0 0.00 0.08 0.08 73 1012.7
20260502184717 57 221 3.0 5.0 0.00 0.08 0.08 72 1012.7
20260502183815 57 208 3.0 5.0 0.00 0.08 0.08 74 1012.7
20260502182816 57 246 3.0 6.0 0.00 0.08 0.08 74 1013.0
20260502181915 56 214 5.0 8.0 0.00 0.08 0.08 75 1013.0
20260502180917 56 166 2.0 5.0 0.00 0.08 0.08 75 1013.0
20260502163916 54 221 4.0 6.0 0.00 0.08 0.08 79 1013.8
20260502162916 53 206 4.0 7.0 0.00 0.08 0.08 79 1013.8
20260502161917 53 203 1.0 5.0 0.00 0.08 0.08 79 1013.9
20260502161016 52 221 1.0 4.0 0.00 0.08 0.08 79 1014.1
20260502152116 50 202 1.0 2.0 0.00 0.08 0.08 77 1014.4
20260502151116 49 180 0.0 1.0 0.00 0.08 0.08 77 1014.3
20260502150116 49 270 0.0 0.0 0.00 0.08 0.08 77 1014.4
20260502123431 45 70 1.0 1.0 0.05 0.08 0.08 72 1014.9
20260502122417 45 120 2.0 3.0 0.05 0.07 0.07 70 1014.9
20260502121415 45 180 0.0 0.0 0.05 0.06 0.06 70 1015.0
20260502120515 45 225 0.0 0.0 0.04 0.05 0.05 70 1014.9
20260502115516 45 195 0.0 1.0 0.05 0.05 0.04 70 1014.8
20260502114515 45 79 1.0 1.0 0.04 0.04 0.04 69 1014.7
20260502113515 45 45 0.0 0.0 0.04 0.04 0.03 69 1014.7
20260502112516 45 292 0.0 1.0 0.02 0.02 0.02 68 1015.0
20260502111516 45 292 0.0 0.0 0.01 0.01 0.01 68 1014.8
20260502110517 45 292 0.0 0.0 0.01 0.01 0.01 67 1014.5
20260502105517 45 292 1.0 1.0 0.00 0.00 0.00 66 1014.4
20260502104516 45 292 0.0 0.0 0.00 0.00 0.00 65 1014.0
20260502103517 45 292 0.0 0.0 0.00 0.00 0.00 64 1013.9
20260502102515 45 292 0.0 0.0 0.00 0.00 0.00 64 1013.8
20260502101516 44 292 0.0 1.0 0.00 0.00 0.00 64 1013.9
20260502100516 44 292 0.0 0.0 0.00 0.00 0.00 63 1013.6
20260502090717 45 292 0.0 0.0 0.00 0.00 0.00 61 1013.5
20260502070817 46 292 0.0 0.0 0.00 0.00 0.00 56 1013.6
20260502065817 46 247 0.0 1.0 0.00 0.00 0.00 55 1013.9
20260502064814 45 270 0.0 1.0 0.00 0.00 0.00 54 1013.8
20260502062815 45 225 1.0 2.0 0.00 0.00 0.00 53 1014.1
20260502061816 44 225 1.0 2.0 0.00 0.00 0.00 54 1013.9
20260502054915 44 225 0.0 1.0 0.00 0.00 0.00 52 1013.5
20260502054014 44 225 0.0 1.0 0.00 0.00 0.00 52 1013.6
20260502053114 44 225 0.0 1.0 0.00 0.00 0.00 50 1013.8
20260502051116 43 225 0.0 0.0 0.00 0.00 0.00 49 1013.7
20260502050115 44 225 0.0 0.0 0.00 0.00 0.00 50 1013.8
20260502045116 44 225 0.0 0.0 0.00 0.00 0.00 50 1013.8
20260502043216 45 225 0.0 0.0 0.00 0.00 0.00 49 1013.9
20260502042216 45 225 0.0 0.0 0.00 0.00 0.00 48 1014.0
20260502041216 45 225 0.0 0.0 0.00 0.00 0.00 48 1014.0
20260502040215 45 225 0.0 1.0 0.00 0.00 0.00 48 1014.1
20260502035222 45 225 2.0 2.0 0.00 0.00 0.00 47 1014.1
20260502034225 45 239 1.0 3.0 0.00 0.00 0.00 47 1014.1
20260502033323 45 270 1.0 1.0 0.00 0.00 0.00 46 1013.9
20260502032325 45 270 0.0 0.0 0.00 0.00 0.00 46 1013.8
20260502031324 45 270 0.0 0.0 0.00 0.00 0.00 45 1013.8
20260502030423 45 270 0.0 0.0 0.00 0.00 0.00 44 1013.8
20260502025425 44 270 0.0 0.0 0.00 0.00 0.00 44 1013.8
20260502024522 44 270 0.0 0.0 0.00 0.00 0.00 43 1013.5
20260502023524 44 270 0.0 0.0 0.00 0.00 0.00 42 1013.6
20260502022525 44 270 0.0 0.0 0.00 0.00 0.00 43 1013.7
20260502021523 44 270 0.0 0.0 0.00 0.00 0.00 42 1013.7
20260502020523 44 270 0.0 0.0 0.00 0.00 0.00 41 1013.8
20260502015525 44 270 0.0 0.0 0.00 0.00 0.00 41 1013.7